GFSNE_con_mucape_000.txt.gz
CAPE
12 67 156 43 52 70 98 106 68 28 15 23 39 43 25 38 35 26 1 0 0 0 0 0 0 0 0 0 0 0 0 0 0 5 20 192 1252 1734
0 7 73 50 77 94 95 96 63 30 15 23 8 29 38 42 101 76 72 45 0 0 0 0 0 0 0 0 0 0 0 0 0 0 2 0 47 700
3 97 264 431 149 84 80 60 85 84 71 7 16 31 57 111 106 155 132 86 54 19 0 0 0 0 0 0 0 0 0 0 0 0 0 4 0 63
47 235 396 271 356 447 185 254 204 181 137 217 160 67 285 52 87 214 192 65 76 46 4 0 0 0 0 0 0 0 0 0 0 0 0 0 3 0
187 312 363 375 370 265 256 142 149 142 173 130 139 115 77 51 171 401 366 342 90 136 35 5 0 0 0 0 0 0 0 0 0 0 0 0 0 1
321 439 586 599 559 438 263 450 380 242 341 120 173 93 122 209 193 99 97 112 80 119 97 15 1 0 0 0 0 0 0 0 0 0 0 0 0 0
499 642 769 865 409 345 226 402 331 225 162 127 150 99 78 103 267 134 115 176 328 337 148 42 8 13 10 1 2 3 0 0 0 0 0 0 0 0
831 921 998 853 499 203 65 36 71 148 130 89 83 121 346 435 330 203 213 173 202 323 293 24 126 129 45 5 1 0 0 0 0 0 0 0 0 0
1065 950 722 439 328 575 242 78 36 0 0 131 299 270 467 405 331 481 311 258 144 32 258 184 155 62 33 18 1 0 0 0 0 0 0 0 0 0
824 526 548 401 403 624 504 271 220 221 286 217 188 127 155 113 50 35 51 54 84 47 378 231 58 21 31 25 0 0 0 0 0 0 0 0 0 0
593 320 245 416 253 96 93 154 268 238 53 3 0 0 0 0 0 8 5 38 27 23 37 47 39 58 21 1 0 0 0 0 0 0 0 0 0 0
420 222 134 99 80 41 30 132 153 149 93 2 16 13 0 8 1 20 13 33 44 25 8 57 46 18 0 0 0 1 0 0 3 3 0 0 0 0
349 845 330 63 33 12 0 14 47 0 0 0 0 0 0 9 25 42 21 4 1 0 0 46 73 12 0 0 12 5 1 11 5 19 1 0 0 0
985 405 110 69 3 0 0 0 0 0 0 2 1 0 1 5 5 1 0 0 0 8 68 305 97 0 0 1 5 3 23 16 26 59 49 0 0 0
379 104 29 0 0 0 0 0 0 0 9 1 0 0 0 0 0 10 6 17 31 44 68 285 62 4 0 35 14 3 3 31 67 543 415 17 0 0
24 0 0 0 0 0 0 0 1 1 1 0 0 0 0 0 0 0 0 0 12 23 59 85 6 1 7 13 6 16 3 37 68 399 366 237 43 44
0 0 1 9 11 15 15 8 5 2 0 0 0 0 0 0 0 0 0 0 18 15 1 4 8 1 0 4 13 24 11 21 54 115 169 144 220 163
0 0 3 4 3 7 8 2 0 0 0 0 0 0 0 0 0 0 0 3 7 29 0 5 185 0 0 10 2 18 26 42 16 113 245 198 125 123
0 0 0 0 0 0 0 0 0 0 0 0 0 0 0 0 0 0 0 0 6 0 13 1 170 0 0 0 2 7 15 8 40 37 267 137 246 154
0 0 0 0 0 0 0 0 0 0 0 0 0 0 0 0 0 0 0 0 6 13 1 5 1 0 0 0 0 0 0 29 87 55 124 261 429 187
0 0 0 0 0 0 0 0 0 0 0 0 0 0 0 0 0 0 0 0 0 14 3 5 4 0 0 0 0 0 0 0 29 67 82 31 300 120
0 0 0 0 0 0 0 0 0 0 0 0 0 0 0 0 0 0 0 0 5 4 0 8 15 1 0 0 0 0 0 5 0 4 46 7 10 35
0 0 0 0 0 0 0 0 0 0 0 0 0 0 0 0 0 0 0 0 0 0 3 8 25 5 0 0 0 0 0 1 1 16 34 0 9 0

GFSNE_con_mucape_003.txt.gz
CAPE
192 738 211 21 31 42 52 174 121 62 92 91 48 146 63 73 54 17 40 61 3 0 0 0 0 0 0 0 0 0 0 0 0 0 0 0 1 24
4 541 688 52 6 32 57 72 42 27 37 41 52 110 105 57 94 91 58 138 34 0 0 0 0 0 0 0 0 0 0 0 0 0 0 0 0 2
602 285 544 966 103 30 46 56 42 44 21 48 20 133 781 713 453 351 138 422 84 35 19 0 0 0 0 0 0 0 0 0 0 0 0 0 0 0
134 710 514 307 1357 1546 205 1282 690 436 94 591 264 21 427 780 891 882 222 43 97 43 38 0 0 0 0 0 0 0 0 0 0 0 0 0 0 0
130 657 611 1191 1394 700 1152 545 316 660 380 117 81 113 127 179 232 694 895 361 139 41 7 9 2 0 0 0 0 0 0 0 0 0 0 0 0 0
460 746 822 1035 1205 1211 1163 1454 1188 759 465 189 89 100 166 90 217 140 139 120 112 67 41 1 4 42 5 0 0 0 0 0 0 0 0 0 0 0
499 433 855 1071 677 640 1103 367 1135 677 385 310 225 169 204 146 184 234 189 173 80 104 74 112 240 260 115 61 156 120 3 0 0 0 0 0 0 0
738 756 1150 854 366 286 306 168 69 167 427 252 141 206 428 444 417 492 339 67 21 123 212 117 92 185 314 446 233 10 0 0 0 0 0 0 0 0
1167 1019 1099 535 330 443 439 219 167 84 63 226 361 584 494 366 525 499 333 169 30 9 126 49 85 237 412 356 28 0 0 0 0 0 0 0 0 0
885 1000 1246 1130 964 480 633 526 496 796 579 211 286 519 418 157 65 38 75 60 71 87 255 115 111 140 294 361 8 0 0 0 0 0 0 0 0 0
1142 1050 1268 756 338 145 110 150 589 824 305 127 39 1 0 0 0 0 3 7 14 25 18 54 73 16 14 4 63 0 0 0 0 0 0 0 1 0
1733 1379 245 114 147 103 144 227 425 533 306 190 135 0 10 8 0 6 38 55 41 29 7 3 0 0 45 16 31 11 0 0 0 0 0 0 5 9
590 888 262 71 66 42 39 44 169 51 118 0 0 3 80 58 10 73 219 6 4 0 0 0 0 50 161 69 2 0 1 7 1 0 6 0 14 8
473 423 969 319 57 63 1 0 0 0 0 0 7 37 30 1 1 5 23 23 4 32 0 7 100 230 151 0 0 0 2 7 19 5 4 7 10 17
487 105 109 93 36 0 0 0 0 0 0 21 24 5 0 0 12 11 29 28 12 11 56 145 83 64 148 27 0 0 1 0 5 19 1 97 56 8
15 94 56 3 0 0 0 0 0 1 16 3 0 0 0 0 0 0 0 0 0 1 41 145 3 65 94 60 0 0 0 2 21 18 59 449 54 10
113 129 19 35 25 46 34 36 33 25 9 1 0 0 0 0 0 0 0 0 0 9 18 24 0 110 280 0 0 0 0 2 21 53 66 157 161 103
16 20 20 25 31 30 58 52 26 1 0 0 0 0 0 0 0 0 0 0 0 8 26 54 16 11 0 0 0 0 0 0 8 5 8 97 32 61
0 0 12 17 21 14 6 4 0 0 0 0 0 0 0 0 0 0 0 0 0 11 39 48 5 1 0 0 0 1 0 1 6 20 14 28 55 79
0 1 8 10 2 0 0 0 0 0 0 0 0 0 0 0 0 0 0 0 0 8 37 7 0 1 0 0 0 0 2 0 0 1 13 2 19 37
21 3 0 0 0 0 0 0 0 0 0 0 0 0 0 0 0 0 0 0 0 4 21 24 0 10 2 76 0 0 0 3 0 2 60 17 28 117
6 1 0 0 0 0 0 0 0 0 0 0 0 0 0 0 0 0 0 0 0 0 2 22 0 11 1 1 1 0 0 0 1 1 15 35 29 10
7 2 0 0 0 0 0 0 0 0 0 0 0 0 0 0 0 0 0 0 0 0 0 0 1 2 1 10 0 1 0 0 0 0 6 9 17 2

GFSNE_con_mucape_006.txt.gz
CAPE
847 669 470 145 311 334 199 271 47 57 22 92 77 117 48 75 57 43 10 117 50 0 0 0 0 0 0 0 0 0 0 0 0 0 0 0 0 0
434 614 592 325 472 340 52 243 64 95 43 102 115 152 206 149 106 125 132 163 118 16 0 0 0 0 0 0 0 0 0 0 0 0 0 0 0 0
524 651 547 1003 606 410 658 314 152 199 240 118 87 116 132 160 125 154 237 149 124 52 35 9 0 0 0 0 0 0 0 0 0 0 0 0 0 0
842 890 675 468 1014 782 854 672 734 623 384 356 294 210 169 268 318 275 191 25 44 39 62 33 15 0 0 0 0 0 0 0 0 0 0 0 0 0
530 712 720 824 1014 1003 740 810 553 419 266 149 128 239 84 33 48 81 45 293 349 108 22 0 11 4 0 0 0 0 0 0 0 0 0 0 0 0
918 933 1039 809 925 1047 760 924 933 625 217 126 115 100 196 97 245 92 39 152 175 49 36 15 6 4 0 0 0 0 0 0 0 0 0 0 0 0
672 999 965 1029 685 806 914 718 992 468 180 34 40 15 40 132 100 102 70 61 39 50 53 31 0 3 0 0 0 10 0 0 0 0 0 0 0 0
640 1000 1228 411 321 129 91 151 652 379 137 42 36 42 51 159 163 112 101 42 0 0 49 0 0 0 0 0 0 0 0 8 17 4 0 0 0 0
675 1049 678 538 507 792 341 173 142 93 63 20 35 71 118 194 158 104 80 45 0 0 0 0 0 7 0 5 10 15 19 12 0 0 0 0 0 0
710 830 307 827 1099 1218 729 825 302 245 194 133 85 95 245 414 167 30 0 0 0 0 3 4 0 0 0 0 0 0 0 0 0 0 0 0 0 0
655 621 769 1314 1195 393 230 236 236 592 546 260 174 246 235 87 37 8 0 0 0 0 1 0 5 1 0 0 0 0 0 0 0 0 0 0 0 0
741 905 444 523 783 223 143 385 656 617 629 480 120 61 68 61 6 11 5 8 19 16 5 0 0 0 0 0 0 0 0 0 0 0 0 5 14 0
444 713 874 516 150 33 49 72 76 55 34 50 33 0 0 59 71 125 90 57 0 0 0 0 0 0 0 3 7 1 1 0 0 0 0 16 11 2
584 753 343 257 186 154 33 32 6 0 0 0 0 0 28 21 11 0 0 0 0 0 3 17 2 4 42 2 0 0 0 0 0 0 2 1 22 17
455 354 217 45 51 101 87 1 0 0 0 0 0 25 1 0 0 0 7 3 2 1 0 59 75 48 27 23 45 32 8 0 0 0 0 3 3 53
107 79 62 14 40 9 0 0 0 0 0 13 2 0 7 0 0 0 0 0 0 0 0 102 50 63 14 45 71 4 0 0 0 0 0 15 15 13
52 64 74 25 25 6 12 23 12 25 45 47 13 1 0 0 0 0 0 0 0 0 0 32 76 61 46 34 0 0 0 0 0 0 0 2 12 21
152 545 338 226 164 58 35 30 41 55 64 9 1 0 0 0 0 0 0 0 0 0 1 59 20 7 1 0 5 0 0 0 0 1 0 0 4 16
205 207 58 247 226 170 45 23 10 23 0 0 0 0 0 0 0 0 0 0 0 0 0 50 19 9 6 3 0 22 0 0 0 0 5 5 1 55
0 4 80 147 89 15 1 0 0 0 0 0 0 0 0 0 0 0 0 0 0 0 0 66 30 7 18 6 5 4 2 0 0 0 4 1 1 0
6 17 42 13 17 9 3 1 0 0 0 0 0 0 0 0 0 0 0 0 0 0 20 18 42 5 10 3 7 0 0 0 1 0 0 4 12 19
132 57 51 35 11 1 0 0 0 0 0 0 0 0 0 0 0 0 0 0 0 0 10 6 0 3 1 11 7 1 0 0 0 1 0 0 12 10
181 64 67 60 20 5 2 0 0 0 0 0 0 0 0 0 0 0 0 0 0 0 0 0 11 8 0 0 1 3 0 0 0 0 0 1 6 2

GFSNE_con_mucape_009.txt.gz
CAPE
0 0 2 0 0 1 23 11 0 0 0 8 0 10 16 13 1 6 0 0 0 0 0 0 0 0 0 0 0 0 0 0 0 0 0 0 0 0
63 31 0 0 0 39 23 13 8 8 6 0 23 3 54 40 25 54 9 54 15 15 0 0 0 0 0 2 0 0 0 0 0 0 0 0 0 0
1 0 54 62 34 21 90 59 28 41 15 22 8 21 20 11 0 0 7 28 35 15 1 0 0 0 0 2 8 0 0 0 0 0 0 0 0 0
20 16 7 0 102 87 169 154 175 187 120 53 74 80 49 54 9 9 32 63 24 8 3 7 0 0 6 6 0 0 0 0 0 0 0 0 0 0
130 92 60 59 92 205 174 231 209 151 122 76 54 49 33 23 36 10 2 25 23 94 64 35 29 4 0 0 3 4 0 0 0 0 0 0 0 0
160 265 243 70 109 345 227 153 176 176 160 97 71 41 31 34 22 60 4 0 0 10 12 6 6 4 0 0 0 0 0 0 0 0 0 0 0 0
202 327 266 345 342 286 217 257 210 171 151 129 81 16 3 2 13 10 0 0 0 0 0 0 0 0 0 1 0 2 0 0 0 0 0 2 1 1
354 455 218 519 494 411 386 301 284 303 201 82 50 36 7 4 16 29 13 0 0 0 0 0 0 0 0 0 0 0 0 0 0 0 0 4 0 0
384 465 393 388 326 344 303 146 131 226 181 108 33 3 0 2 43 35 7 15 0 0 0 0 0 0 0 0 0 0 0 0 0 0 0 0 0 0
496 537 504 265 208 259 289 298 296 295 185 118 89 85 77 78 112 106 39 8 0 0 0 0 0 0 0 0 0 0 0 0 0 0 0 0 0 0
303 307 271 97 174 358 293 271 119 100 100 370 496 407 203 179 237 131 28 2 0 0 0 0 0 0 0 0 0 0 0 0 0 0 0 0 0 0
79 122 125 195 464 376 229 171 76 117 128 125 136 77 75 3 26 35 25 19 19 3 0 0 0 0 0 0 0 0 0 0 0 0 0 0 0 0
133 82 111 224 211 218 174 59 57 52 8 0 0 0 0 0 0 9 37 24 7 3 0 0 0 0 0 0 0 0 0 0 0 0 0 0 0 0
216 287 206 365 367 128 74 31 24 31 0 0 0 0 0 0 0 5 2 2 2 0 0 0 0 0 0 3 11 5 0 0 0 0 0 0 0 0
251 175 151 124 61 19 25 52 3 0 0 0 0 0 1 2 1 0 0 0 0 0 0 0 0 0 13 37 26 0 0 0 0 0 0 0 0 0
136 158 125 90 11 0 0 0 0 0 0 0 0 0 0 0 0 0 0 0 0 0 0 0 1 49 43 24 22 4 0 0 0 0 0 0 0 0
235 121 23 0 0 0 0 0 3 7 2 1 2 0 0 0 0 0 0 0 0 0 0 0 6 20 35 23 0 0 0 0 0 3 0 0 0 0
60 50 64 29 9 38 81 59 17 15 18 6 0 0 0 0 0 0 0 0 0 0 0 0 2 0 4 0 3 0 3 0 0 0 0 0 0 2
85 144 124 13 0 0 4 12 0 0 0 0 0 0 0 0 0 0 0 0 0 0 0 0 4 25 24 0 0 7 6 4 9 0 0 0 0 1
1 15 0 0 0 0 0 0 0 0 0 0 0 0 0 0 0 0 0 0 0 0 0 0 16 24 26 2 0 0 11 1 0 0 0 0 0 2
0 0 1 3 3 0 0 0 0 0 0 0 0 0 0 0 0 0 0 0 0 0 0 0 0 3 12 3 0 0 0 1 0 0 0 0 0 0
0 0 2 7 1 0 0 0 0 0 0 0 0 0 0 0 0 0 0 0 0 0 0 0 0 0 10 2 0 0 0 0 0 0 0 0 0 1
0 0 2 5 0 0 0 0 0 0 0 0 0 0 0 0 0 0 0 0 0 0 0 0 0 0 4 0 0 0 0 0 0 0 0 0 6 0

GFSNE_con_mucape_012.txt.gz
CAPE
13 24 0 0 0 8 7 8 2 0 0 0 0 0 7 0 0 0 0 0 0 0 0 0 0 0 4 6 10 8 0 0 0 0 0 0 0 0
8 0 0 0 0 2 1 29 25 2 0 0 0 0 0 0 0 9 1 4 1 0 0 0 3 2 10 19 24 18 14 0 6 1 3 0 0 0
61 11 1 0 3 2 3 13 33 17 9 18 20 0 9 3 3 0 0 0 3 1 10 9 11 3 9 17 13 17 11 13 21 17 22 20 16 0
20 48 13 3 39 47 25 72 87 71 17 25 52 47 37 45 36 27 31 12 4 1 0 0 2 13 0 0 0 0 0 0 0 0 7 5 14 18
63 11 0 6 10 9 32 43 99 134 108 90 91 75 51 41 14 16 8 6 2 5 0 0 0 0 12 3 0 0 0 0 0 0 0 0 0 0
0 47 2 4 17 14 81 132 154 153 139 130 105 81 59 25 16 0 0 0 0 0 0 0 0 0 0 0 0 0 0 0 0 0 0 0 0 0
107 134 147 85 205 156 73 173 136 129 137 133 81 57 26 0 11 0 0 0 0 0 0 0 0 0 0 0 0 0 0 0 0 0 0 0 0 0
181 95 210 207 216 183 156 203 125 170 118 62 50 25 7 0 0 0 0 0 0 0 0 0 0 0 0 0 0 0 0 0 0 0 0 0 0 0
211 96 145 200 237 206 209 173 238 166 222 139 74 39 8 9 16 0 13 13 4 3 0 0 0 0 0 0 0 0 0 0 0 0 0 0 0 0
288 183 339 343 338 124 81 85 124 87 84 99 90 80 75 114 146 108 73 77 62 36 0 0 0 0 0 0 0 0 0 0 0 0 0 0 0 0
199 287 344 395 315 192 116 89 95 135 116 96 118 151 176 207 121 78 142 56 2 0 0 13 0 0 0 0 0 0 0 0 0 0 0 0 0 0
318 430 543 386 243 110 63 45 32 82 111 49 82 65 33 0 0 0 0 0 1 2 0 0 0 0 0 0 0 0 0 0 0 0 0 0 0 0
186 263 101 85 87 78 161 151 136 94 83 35 24 8 0 0 0 0 0 0 0 0 0 0 0 0 0 0 0 0 0 0 0 0 0 0 0 0
533 216 42 77 94 129 79 47 12 3 4 0 0 0 0 0 0 0 0 0 0 0 0 0 0 0 0 0 0 0 0 0 0 0 0 0 0 0
338 68 115 144 62 53 33 31 9 0 0 0 0 0 0 0 0 0 0 0 0 0 0 0 0 0 0 4 9 3 0 0 0 0 0 0 0 0
341 187 118 42 14 0 0 0 0 0 0 0 0 0 0 0 0 0 0 0 0 0 0 0 0 0 5 8 8 0 0 1 0 0 0 2 2 1
267 148 64 40 0 0 0 0 0 0 0 0 0 0 0 0 0 0 0 0 0 0 0 0 0 0 0 3 0 0 0 0 0 0 4 11 0 0
98 88 23 0 0 0 0 0 4 11 0 0 0 0 0 0 0 0 0 0 0 0 0 0 0 0 0 0 0 0 0 0 0 3 0 0 0 0
0 0 0 0 0 0 0 0 0 0 0 0 0 0 0 0 0 0 0 0 0 0 0 0 0 0 0 0 0 0 0 0 0 0 0 0 0 0
0 0 3 0 0 0 0 0 0 0 0 0 0 0 0 0 0 0 0 0 0 0 0 0 0 0 0 0 0 0 0 0 0 0 0 0 0 0
0 0 0 0 0 0 0 0 0 0 0 0 0 0 0 0 0 0 0 0 0 0 0 0 0 0 0 0 0 0 0 0 0 0 0 0 0 0
0 0 0 0 0 0 0 0 0 0 0 0 0 0 0 0 0 0 0 0 0 0 0 0 0 0 0 0 0 0 0 0 0 0 0 0 0 0
0 0 0 0 0 2 3 1 0 0 0 0 0 0 0 0 0 0 0 0 0 0 0 0 0 0 0 0 0 0 0 0 0 0 0 0 0 0

GFSNE_con_mucape_015.txt.gz
CAPE
3 1 0 0 0 0 0 0 0 0 0 0 0 0 0 0 0 0 0 0 0 0 0 0 0 0 14 27 39 33 34 38 22 3 0 0 0 0
0 0 0 0 0 0 0 0 0 0 1 5 0 0 0 0 0 0 0 0 0 0 0 0 0 6 23 36 38 42 45 51 53 41 30 25 22 9
6 0 0 0 0 0 1 0 0 0 0 20 22 6 0 0 0 0 0 0 0 0 0 0 0 0 12 26 31 25 23 27 28 43 54 46 33 28
3 18 1 0 0 0 0 0 0 0 6 13 19 33 35 42 6 0 0 0 0 0 0 0 0 0 0 0 1 0 0 0 0 0 2 19 34 25
11 0 21 26 8 0 25 20 0 14 33 24 15 27 56 47 38 7 0 0 0 0 0 7 0 0 0 0 0 0 0 0 0 0 0 0 0 0
339 139 0 2 3 0 4 0 0 8 46 74 70 71 48 51 39 3 0 0 0 0 0 0 0 0 0 0 0 0 0 0 0 0 0 0 0 0
779 446 96 22 35 8 11 53 16 57 99 89 106 86 32 21 14 1 0 0 0 0 0 0 0 0 0 0 0 0 0 0 0 0 0 0 0 0
800 559 252 66 72 111 63 192 37 41 83 79 73 48 42 24 5 0 0 0 0 1 0 0 0 0 0 0 0 0 0 0 0 0 0 0 0 0
915 1016 688 105 55 161 181 198 95 75 67 56 39 35 14 15 3 4 10 30 16 36 26 14 0 0 0 0 0 0 0 0 0 0 0 0 0 0
1095 1155 361 217 15 163 232 154 64 47 49 12 16 33 54 25 40 55 36 11 23 104 43 4 0 0 0 0 0 0 0 0 0 0 0 0 0 0
1097 755 469 255 47 258 149 21 32 60 35 34 23 38 42 26 19 16 24 1 0 1 0 0 0 0 0 0 0 0 0 0 0 0 0 0 0 0
824 418 355 146 248 395 193 37 29 24 15 38 57 20 8 0 0 0 0 0 0 0 0 0 0 0 0 0 0 0 0 0 0 0 0 0 0 0
358 261 201 282 405 184 90 119 39 6 33 29 6 0 0 0 0 0 0 0 0 1 0 0 0 0 0 0 0 0 0 0 0 0 0 0 0 0
115 83 129 152 8 1 0 0 52 9 3 0 0 0 0 0 0 0 0 0 0 0 0 0 0 0 0 0 0 0 0 0 0 0 0 0 0 0
3 7 200 24 0 0 0 0 0 0 0 0 0 0 0 0 0 0 0 0 0 0 0 0 0 0 0 0 0 0 0 0 0 0 0 0 0 0
85 202 41 0 0 0 0 0 0 0 0 0 0 0 0 0 0 0 0 0 0 0 0 0 0 0 0 0 0 0 0 0 0 0 0 0 1 0
282 326 104 39 0 0 0 0 0 0 0 0 0 0 0 0 0 0 0 0 0 0 0 0 0 0 0 0 0 0 0 0 0 0 0 0 0 0
513 431 101 19 0 0 0 0 0 0 0 0 0 0 0 0 0 0 0 0 0 0 0 0 0 0 0 0 0 0 0 0 0 0 0 0 0 0
281 103 15 0 0 0 0 0 0 0 0 0 0 0 0 0 0 0 0 0 0 0 0 0 0 0 0 0 0 0 0 0 0 0 0 0 0 0
8 0 0 0 0 0 0 0 0 0 0 0 0 0 0 0 0 0 0 0 0 0 0 0 0 0 0 0 0 0 0 0 0 0 0 0 0 0
0 0 0 0 0 0 0 0 0 0 0 0 0 0 0 0 0 0 0 0 0 0 0 0 0 0 0 0 0 0 0 0 0 0 0 0 0 0
0 0 0 0 0 0 0 0 0 0 0 0 0 0 0 0 0 0 0 0 0 0 0 0 0 0 0 0 0 0 0 0 0 0 0 0 0 0
0 0 0 0 0 0 0 0 0 2 0 0 0 0 0 0 0 0 0 0 0 0 0 0 0 0 0 0 0 0 0 0 0 0 0 0 0 0

GFSNE_con_mucape_021.txt.gz
CAPE
289 326 208 151 21 0 0 0 0 0 0 7 0 24 59 81 43 31 69 15 25 12 0 0 0 0 0 0 1 13 38 49 41 35 47 72 10 0
176 306 219 108 110 39 0 0 0 2 0 0 0 52 72 59 71 184 143 0 0 0 0 0 0 0 0 11 20 31 45 61 73 78 72 76 83 56
279 303 323 302 95 59 54 52 50 2 4 12 7 79 202 241 63 146 65 175 91 0 0 0 0 0 0 0 5 9 22 27 31 40 46 55 74 70
642 342 235 124 231 159 50 155 58 78 35 253 118 144 306 313 387 532 247 9 84 5 0 0 0 0 0 0 0 0 0 0 0 0 0 0 0 1
832 528 409 276 139 35 51 38 27 123 118 80 88 115 115 139 271 415 464 188 39 0 0 0 0 0 0 0 0 0 0 0 0 0 0 0 0 0
1073 643 406 261 242 197 217 205 152 139 183 175 81 96 189 271 224 194 148 132 44 1 0 0 0 0 0 0 0 0 0 0 0 0 0 0 0 0
1156 882 717 657 521 275 221 300 290 234 147 118 88 67 68 228 296 139 147 132 103 130 92 118 147 184 151 5 0 0 0 0 0 0 0 0 0 0
1593 1077 1009 947 900 674 394 169 269 308 334 225 220 203 651 573 223 158 150 176 168 178 266 168 398 441 411 410 0 0 0 0 0 0 0 0 0 0
1802 1461 1146 1266 1321 1164 794 340 133 0 63 718 641 495 349 489 295 202 204 211 234 275 336 296 363 431 207 71 0 0 0 0 0 0 0 0 0 0
1820 1712 1662 1490 1631 1378 1045 528 188 211 57 62 537 771 449 389 318 225 374 343 231 214 301 93 54 106 33 0 0 0 0 0 0 0 0 0 0 0
1822 1670 1748 1667 1789 1126 1128 771 748 756 156 15 20 7 1 0 42 113 66 50 108 41 44 19 3 4 0 0 0 0 0 0 0 0 0 0 0 0
1711 1488 1507 1712 1280 933 1057 965 853 703 305 0 0 0 9 0 0 38 0 0 0 0 13 0 0 0 0 0 0 0 0 0 0 0 0 0 0 0
1381 1364 1649 1712 1446 1276 990 1078 631 645 39 17 0 4 9 0 0 0 0 0 0 0 2 0 0 0 0 0 0 0 0 0 0 0 0 0 0 0
1367 1319 1753 1275 1259 1047 694 422 280 138 43 3 0 2 0 0 0 0 0 0 0 0 0 0 0 0 0 0 0 0 0 0 0 0 0 0 0 0
1555 1592 1486 956 1074 655 187 197 169 63 5 0 0 0 0 0 0 0 0 0 0 0 0 0 0 0 0 0 0 0 0 0 0 0 7 14 5 0
1808 927 696 707 440 68 172 66 6 18 0 0 0 0 0 0 0 0 0 0 0 0 0 0 0 0 0 0 0 0 0 0 0 6 35 14 1 0
813 408 152 72 69 114 27 18 6 0 0 0 0 0 0 0 0 0 0 0 0 0 0 0 0 0 0 0 0 0 0 0 0 13 18 1 0 0
41 15 55 19 19 8 20 27 0 0 0 0 0 0 0 0 0 0 0 0 0 0 0 0 0 0 0 0 0 0 0 0 0 7 7 0 0 0
4 3 1 0 2 50 58 0 0 0 0 0 0 0 0 0 0 0 0 0 0 0 0 0 0 0 0 0 0 0 0 0 1 0 0 0 0 0
1 0 2 19 14 45 1 0 0 0 0 0 0 0 0 0 0 0 0 0 0 0 0 0 0 0 0 0 0 0 0 0 0 0 0 0 0 0
3 4 42 35 58 28 0 0 0 0 0 0 0 0 0 0 0 0 0 0 0 0 0 0 0 0 0 0 0 0 0 0 0 0 0 0 0 0
245 142 106 90 53 0 0 0 0 0 0 0 0 0 0 0 0 0 0 0 0 0 0 0 0 0 0 0 0 0 0 0 0 0 0 0 0 0
232 242 119 71 0 0 0 0 0 0 0 0 0 0 0 0 0 0 0 0 0 0 0 0 0 0 0 0 0 0 0 0 0 0 0 0 0 0

GFSNE_con_mucape_024.txt.gz
CAPE
1186 672 203 37 128 46 19 5 0 1 10 60 4 0 3 1 44 53 30 171 33 10 0 0 0 0 4 21 34 64 141 181 213 197 190 227 61 8
1039 679 549 44 120 67 13 0 0 0 0 0 1 6 0 5 46 49 86 44 22 0 2 0 0 0 0 0 0 44 93 165 209 223 198 200 245 127
1309 908 831 287 48 29 32 0 0 0 0 0 0 64 263 408 84 57 178 194 146 9 0 0 0 0 0 0 1 0 0 3 9 10 12 36 69 76
1887 1337 1005 434 510 527 116 461 253 107 0 133 37 43 539 427 679 666 455 133 135 35 0 0 0 0 0 0 0 0 0 0 0 0 0 0 0 0
2202 1862 1419 735 780 347 272 138 81 58 267 18 37 182 118 274 578 777 624 609 265 22 0 0 0 0 0 0 0 0 0 0 0 0 0 0 0 0
2555 2222 1742 1132 1015 669 374 435 179 128 405 113 12 11 163 311 179 65 458 696 395 110 27 4 5 0 0 0 0 0 0 0 0 0 0 0 0 0
2996 2558 2157 1340 563 574 392 989 1286 417 44 158 81 31 39 113 279 82 93 91 256 381 247 163 151 227 223 83 126 148 43 0 0 0 0 0 0 0
3482 2988 2427 1227 807 670 691 590 933 981 1058 175 143 353 457 383 359 206 155 112 127 280 368 334 263 331 475 490 125 55 7 0 0 0 0 0 0 0
3739 3204 2651 1980 1045 1094 1007 1020 1006 875 455 971 936 765 681 698 1041 718 421 341 273 303 586 394 275 263 219 114 0 0 0 0 0 0 0 0 0 0
3122 3093 3158 2809 1908 1403 1406 1246 1161 1054 714 483 490 1015 1242 881 832 743 586 409 521 453 445 229 71 13 10 5 0 0 0 0 0 0 0 0 0 0
3386 3195 3291 3258 2339 1644 1579 1617 1269 1111 869 617 82 228 446 183 282 335 219 146 154 94 181 25 6 8 1 0 0 0 0 0 0 0 0 0 0 0
3550 3896 2207 2715 2276 1757 1632 1895 1856 1385 950 741 390 122 118 4 0 134 115 124 29 0 22 0 0 0 0 0 0 0 0 0 0 0 0 0 0 0
2301 2638 2919 1883 1791 1648 1497 1726 1801 1302 977 799 620 369 139 52 0 2 3 0 0 0 2 0 0 0 0 0 0 0 0 0 0 0 0 0 0 0
2716 2573 2505 1708 1319 1282 1455 1121 754 900 949 396 365 176 71 7 1 0 0 0 0 0 0 0 0 0 0 0 0 0 0 0 0 0 1 0 0 0
2520 2077 1720 1388 1156 1301 1486 820 711 564 501 459 584 335 80 11 0 0 0 0 0 0 0 0 0 0 0 0 0 0 0 0 0 0 0 3 16 26
1965 1737 1407 1104 1237 1234 706 495 337 460 714 507 471 223 18 0 0 0 0 0 0 0 0 0 0 0 0 0 0 0 0 0 0 0 0 5 15 8
1578 1617 1486 1261 1230 591 307 83 130 220 290 505 284 74 2 0 0 0 0 0 0 0 0 0 0 0 0 0 0 0 0 0 0 0 9 4 4 1
1528 1370 1149 1196 546 159 92 53 57 95 171 229 155 3 0 0 0 1 0 0 0 0 0 0 0 0 0 5 0 0 0 0 0 5 9 2 0 0
1594 1268 1234 715 285 56 5 16 55 106 284 114 13 4 0 0 0 1 0 0 0 0 0 0 0 0 0 0 0 0 0 0 0 1 0 0 0 0
1511 1221 770 377 139 4 9 24 58 110 95 49 11 2 0 2 9 0 0 0 0 0 0 0 0 0 0 0 0 0 0 0 0 0 0 0 0 0
1194 544 265 252 81 35 51 109 166 137 66 49 3 1 6 3 1 0 0 0 0 0 0 0 0 0 0 0 0 0 0 0 0 0 0 0 0 0
632 351 131 110 161 177 88 68 60 40 40 3 0 5 3 1 1 0 0 0 0 0 0 0 0 0 0 0 0 0 0 0 0 0 0 0 0 0
152 153 198 197 418 382 78 62 7 15 3 0 5 4 2 0 0 0 0 0 0 0 0 0 0 0 0 0 0 0 0 0 0 0 0 0 0 0

GFSNE_con_mucape_027.txt.gz
CAPE
2290 1847 502 32 65 84 39 18 4 52 440 175 0 188 9 14 33 0 20 113 145 8 0 0 2 19 43 47 27 27 75 236 411 486 533 606 410 275
1716 2607 1782 96 122 82 23 12 0 0 0 40 23 115 41 16 33 0 9 47 93 0 0 0 0 0 0 3 7 36 108 236 375 493 554 592 570 412
3003 2842 2248 2084 83 56 48 20 7 0 0 0 10 663 995 265 90 41 68 593 53 0 0 0 0 0 0 0 7 12 16 51 98 96 87 115 156 161
2977 2882 2053 1022 1924 1710 171 1502 319 564 0 1186 774 276 989 1359 1357 1637 430 73 385 35 1 0 0 0 0 0 0 0 0 13 1 0 0 0 0 0
3400 3277 2546 2247 2252 500 685 499 172 440 486 109 62 100 174 468 1223 1328 1646 1142 417 61 7 0 0 0 0 0 0 0 0 0 0 0 0 0 0 0
3677 3563 3229 2659 2321 2122 1618 1508 1236 627 492 215 58 3 80 858 425 401 899 747 657 257 59 44 3 0 0 0 0 0 42 95 101 55 0 0 0 0
3822 3849 3640 2823 1792 1824 1117 1399 1205 866 51 141 170 83 30 461 869 507 407 792 716 640 646 487 364 34 33 9 24 39 51 132 124 33 0 0 0 0
4206 4265 3999 2256 1667 1190 756 734 1099 1741 1129 203 154 292 1700 727 352 287 461 350 656 515 504 495 773 834 421 181 25 35 2 0 0 0 0 0 0 0
4405 4295 3918 2750 2126 1893 1107 540 651 700 797 1667 1348 1292 1424 1567 1508 754 1441 860 335 773 975 331 319 138 9 0 0 0 0 0 0 0 0 0 0 0
4197 4263 4300 3535 3063 2671 2278 1373 1122 970 1062 934 1350 1723 1766 1701 1093 1214 1390 1151 676 489 1021 211 103 6 0 0 0 0 0 0 0 0 0 0 0 0
4132 4177 4078 4140 3260 2110 2721 2600 1819 1249 1154 1213 980 695 426 348 545 1001 287 252 94 184 820 114 10 0 0 0 0 0 0 0 0 0 0 0 0 0
3662 4175 2903 3489 3305 2503 2470 2867 2565 1751 1355 1248 895 614 477 163 224 1062 313 327 243 258 65 11 2 0 0 0 0 0 0 0 0 0 0 0 0 0
3263 3443 3769 2571 3175 2693 2345 2783 2395 1999 1411 1220 665 606 524 530 244 95 302 258 47 9 2 0 0 0 0 0 0 0 0 0 0 0 0 0 0 0
3209 3152 3303 2858 2552 2720 2439 2173 2120 1833 1896 1050 519 605 355 346 314 233 243 228 8 2 0 0 0 0 0 0 0 0 0 0 0 0 0 0 0 0
3179 2950 2391 2389 2284 2296 2317 2122 1665 1556 1393 591 551 406 272 186 383 134 107 8 0 0 0 0 0 0 0 0 0 0 0 0 0 0 0 0 0 0
2562 2359 2174 1951 2172 2168 2001 1775 1484 1310 1024 465 419 501 440 96 32 13 0 0 0 0 0 0 0 0 0 0 0 0 0 0 0 0 0 0 0 0
2691 2418 1861 1685 1859 1808 1560 1133 1020 1003 608 493 424 501 156 58 23 68 0 1 0 0 0 0 0 0 0 0 0 0 0 0 0 0 0 0 0 0
2546 2307 2048 1630 1541 1447 1374 869 769 677 223 198 121 72 63 60 2 36 10 1 3 0 0 0 0 0 0 0 0 0 0 0 0 0 0 0 0 0
2647 2185 2029 1462 1328 1385 1244 712 497 220 96 103 74 277 70 49 3 14 20 5 3 0 0 0 0 0 0 0 0 0 0 0 0 0 0 0 0 0
1947 1977 1682 1697 1541 1317 1273 997 484 251 63 179 316 226 31 24 14 11 12 28 0 0 0 0 0 0 0 0 0 0 0 0 0 0 0 0 0 0
982 1338 1751 1512 1385 1167 1180 851 426 87 95 189 90 99 102 25 11 9 7 0 1 0 0 0 0 0 0 0 0 0 0 0 0 0 0 0 0 0
291 426 372 508 419 506 635 325 173 160 71 157 41 80 22 2 2 14 1 0 0 0 0 0 0 0 0 0 0 0 0 0 0 0 0 0 0 0
1 11 23 13 6 0 200 184 82 83 62 88 42 15 2 6 11 6 0 0 0 0 0 0 0 0 0 0 0 0 0 0 0 0 0 0 0 0

GFSNE_con_mucape_030.txt.gz
CAPE
2540 2628 1753 794 1065 936 810 611 573 460 320 631 171 70 421 3 29 0 18 0 0 0 0 0 0 0 0 0 22 31 31 63 190 346 476 726 671 721
2347 2154 1754 420 511 1043 759 648 514 304 235 152 358 33 21 241 32 193 146 6 0 0 0 0 0 0 0 0 0 1 8 48 137 203 341 530 663 639
2706 2576 1767 1115 910 849 649 765 611 507 125 231 780 699 522 143 1 65 57 20 0 1 0 0 0 0 0 0 0 0 0 0 0 13 5 62 169 209
2774 2675 2067 1353 1531 1582 1620 686 679 803 468 866 935 818 647 648 993 953 296 2 174 86 42 11 0 0 0 0 0 0 0 0 0 0 0 0 0 0
3071 2633 2307 1773 1606 858 1088 1399 892 1289 1574 554 722 1021 856 924 798 988 1186 805 582 150 27 20 10 0 0 0 0 0 0 0 0 0 2 13 0 0
3252 3055 2653 1978 1752 1622 1197 732 1369 638 740 1007 468 316 996 763 774 449 721 766 652 318 113 26 16 9 1 4 8 3 0 0 0 9 24 9 0 0
3005 3274 3007 2460 1858 1792 1122 1405 590 1512 904 468 477 592 480 790 582 473 567 418 637 468 187 42 25 48 28 18 18 7 0 0 0 0 0 0 0 0
3269 3116 3185 2770 2299 1842 1586 918 1133 660 701 413 391 349 449 646 818 435 389 376 158 738 318 324 388 291 89 53 23 14 0 0 0 0 0 0 0 0
3318 3353 3278 2946 2600 2244 1946 1708 955 819 666 576 401 512 933 1096 901 1181 924 790 433 554 232 141 207 253 9 1 3 0 0 0 0 0 0 0 0 0
3229 3301 3280 3137 2908 2519 2226 1974 1731 802 657 724 832 663 1275 1599 1630 1348 955 894 694 470 356 82 203 217 8 0 0 0 0 0 0 0 0 0 0 0
3250 3330 3345 3318 3131 2694 2396 2154 1967 1726 756 488 603 895 843 720 1158 574 542 377 285 216 242 146 148 120 0 0 0 0 0 0 0 0 0 0 0 0
2904 3228 3257 3316 3277 3014 2531 2270 2129 1801 1395 732 551 700 866 869 671 641 340 189 165 140 165 153 59 0 0 0 0 0 0 0 0 0 0 0 0 0
2716 2786 2957 3144 3277 3220 2897 2475 2273 2075 1513 1102 699 717 880 973 762 336 584 249 169 139 26 22 0 0 0 0 0 0 0 0 0 0 0 0 0 0
3201 2785 2759 2875 3023 3115 3029 2814 2507 2288 1931 1437 1095 963 1105 991 528 331 156 181 122 44 14 27 0 0 0 0 0 0 0 0 0 0 0 0 0 0
3358 3203 2819 2662 2782 2854 2839 2819 2682 2410 2043 1661 1404 1202 1167 859 399 219 110 112 96 5 19 2 0 0 0 0 0 0 0 0 0 0 0 0 0 0
3560 3339 3101 2847 2331 2588 2601 2615 2551 2311 1990 1687 1499 1158 1075 556 221 107 97 27 1 0 0 0 0 0 0 0 0 0 0 0 0 0 0 0 0 0
3645 3479 3217 3119 3010 2411 2171 2257 2335 2376 2223 1721 1438 998 819 327 132 3 58 35 13 13 0 0 0 0 0 0 0 0 0 0 0 0 0 0 0 0
3212 3105 3130 3065 3089 2787 2421 1986 1714 1965 2020 1691 1512 1158 779 250 37 7 1 27 15 21 0 0 0 0 0 0 0 0 0 0 0 0 0 0 0 0
2671 2620 2544 2466 2479 2563 2659 2326 2052 1636 1597 1411 1167 877 630 289 8 0 0 11 9 2 0 0 0 0 0 0 0 0 0 0 0 0 0 0 0 0
1293 1603 1659 1669 1815 1552 1524 1549 1271 1141 1162 1071 960 649 317 12 8 2 5 3 44 0 0 0 0 0 0 0 0 0 0 0 0 0 0 0 0 0
2 2 37 140 318 728 936 819 871 568 495 730 616 630 99 30 28 0 4 7 0 0 0 0 0 0 0 0 0 0 0 0 0 0 0 0 0 0
4 4 0 2 0 1 18 77 176 239 209 86 156 3 13 1 8 22 13 8 0 0 0 0 0 0 0 0 0 0 0 0 0 0 0 0 0 0
37 45 0 0 0 0 2 0 12 6 6 2 21 198 55 4 23 44 8 0 0 0 0 0 0 0 0 0 0 0 0 0 0 0 0 0 0 0

GFSNE_con_mucape_033.txt.gz
CAPE
1108 1482 546 66 42 115 14 0 0 0 0 0 0 0 0 0 0 0 0 0 0 0 0 0 0 0 0 0 0 0 7 14 0 41 123 176 240 410
1655 1332 1255 696 85 74 76 13 0 0 0 99 0 0 0 0 3 0 0 0 0 0 0 0 0 0 0 0 0 0 0 0 0 9 9 3 26 86
2023 1663 1297 1098 282 52 134 98 20 0 0 0 0 0 4 0 0 0 0 0 0 0 0 0 0 0 0 0 0 0 0 0 0 0 0 0 0 0
2173 1927 1682 1333 831 159 601 51 50 27 0 0 351 189 0 1 0 0 0 0 0 0 0 0 0 0 0 0 0 0 0 0 0 0 0 0 0 0
2332 2172 1908 1598 1289 845 470 608 157 18 150 0 290 146 65 143 64 30 15 7 13 67 141 73 8 0 0 4 0 0 0 0 0 0 0 0 0 0
2397 2525 2196 1982 1650 1433 1005 402 506 352 515 429 21 309 354 380 135 182 304 382 252 242 201 101 57 27 13 10 3 7 4 2 0 0 0 0 0 0
2063 2374 2657 2569 2303 1859 1333 949 315 577 361 292 262 97 40 514 482 256 80 106 309 313 319 192 68 22 1 14 7 9 11 5 0 0 0 0 0 0
2573 2242 2492 2700 2673 2471 2089 1562 724 88 558 417 217 246 157 16 379 334 239 219 273 184 184 181 94 74 19 17 46 19 4 0 0 0 0 0 0 0
2623 2640 2451 2556 2802 2740 2503 2264 1922 1288 599 387 344 154 114 153 138 339 266 177 128 37 164 79 80 29 50 52 9 0 0 0 0 0 0 0 0 0
2780 2764 2702 2638 2586 2776 2788 2615 2369 2129 1723 1188 323 234 148 71 140 205 211 203 115 71 84 43 15 14 2 2 0 0 0 0 0 0 0 0 0 0
2880 2823 2921 2842 2819 2776 2787 2743 2617 2491 2204 1855 1431 670 130 742 753 658 302 312 280 134 35 45 78 30 13 1 0 0 0 0 0 0 0 0 0 0
3077 3004 2886 2956 3040 2993 2875 2785 2764 2621 2397 2149 1849 1496 914 381 546 407 491 292 318 136 110 25 50 89 41 15 22 0 0 0 0 0 0 0 0 0
3096 2925 2852 2815 2996 3187 3152 2876 2631 2397 2359 2314 2065 1716 1391 843 518 319 532 623 562 237 74 68 46 73 29 0 0 0 0 0 0 0 0 0 0 0
3433 3248 3373 2999 2818 2791 3075 3276 3144 2947 2722 2448 2154 1937 1717 1397 868 396 369 602 597 293 41 44 39 37 4 5 0 0 0 0 0 0 0 0 0 0
3787 3579 3428 3233 3082 2950 2753 2813 3096 3232 3114 2380 2491 2159 1734 1765 1273 681 368 478 449 156 2 1 23 24 9 0 0 0 0 0 0 0 0 0 0 0
3987 3909 3778 3641 3522 3327 3082 2870 2704 2742 2717 2673 2576 2395 2041 1615 1497 1258 648 587 563 105 37 40 63 29 8 0 0 0 0 0 0 0 0 0 0 0
3128 3131 3428 3638 3644 3568 3494 3316 3203 2896 2537 2517 2490 2034 1865 1807 1667 1275 828 750 454 92 25 27 1 5 4 0 0 0 0 0 0 0 0 0 0 0
2976 2877 2831 2772 2743 2906 2935 2969 2926 2824 2633 2395 1761 1744 1576 1423 1296 1298 934 603 470 135 6 25 5 3 0 0 0 0 0 0 0 0 0 0 0 0
2879 2873 2835 2737 2560 2468 2533 2462 2245 2135 2141 1927 1511 1463 1307 1108 1092 699 871 435 280 154 24 7 1 0 0 0 0 0 0 0 0 0 0 0 0 0
0 0 0 0 5 202 281 293 388 503 1005 1106 1247 1117 950 660 333 533 255 391 91 2 0 0 0 0 0 0 0 0 0 0 0 0 0 0 0 0
0 0 0 0 1 0 0 0 1 3 6 19 126 581 712 572 367 126 58 41 2 8 0 0 16 0 0 0 0 0 0 0 0 0 0 0 0 0
0 0 0 0 0 0 0 0 0 0 0 2 6 24 15 97 11 1 11 3 44 62 41 11 0 0 0 0 0 0 0 0 0 0 0 0 0 0
5 0 2 0 0 1 0 0 0 0 0 0 0 10 2 4 0 7 2 55 77 90 67 1 0 0 0 0 0 0 0 0 0 0 0 0 0 0

GFSNE_con_mucape_036.txt.gz
CAPE
818 1105 510 42 37 109 41 31 0 0 20 1 0 1 3 0 0 0 0 0 0 0 0 0 0 0 0 0 0 0 0 0 0 0 0 15 0 0
1656 828 1020 528 73 33 123 45 17 0 3 11 13 17 22 1 0 0 0 0 0 0 0 0 0 0 0 0 0 0 0 0 0 0 0 0 0 0
1836 1702 1019 766 394 111 30 110 86 25 14 7 25 57 14 1 5 0 0 0 0 0 0 0 0 0 0 0 0 0 0 0 0 0 0 0 0 0
1870 1963 1858 1494 1048 390 61 47 136 118 71 7 0 72 21 22 8 14 1 0 0 0 0 0 0 13 19 7 0 0 0 0 0 0 0 0 0 0
2164 2017 2024 1871 1621 1336 631 33 165 166 106 50 19 94 162 75 32 11 11 18 0 0 0 0 4 31 19 29 0 0 0 0 0 0 0 0 0 0
1837 2003 1980 2054 2000 1779 1454 915 131 317 249 81 27 16 171 47 30 21 9 1 13 0 4 17 70 95 35 4 5 0 0 1 0 3 5 0 0 0
2015 2066 2149 2083 2023 2019 1859 1676 1178 709 269 379 99 50 78 80 56 14 0 0 23 37 30 74 145 82 33 23 11 7 0 0 4 2 0 0 0 0
2049 1980 1929 2196 2331 2406 2458 2409 2308 1916 1249 226 238 152 53 38 76 39 22 19 45 38 72 89 104 116 65 45 25 27 23 6 0 0 0 0 0 0
2134 2075 2084 1947 2101 2216 2330 2512 2569 2475 2291 1735 988 192 112 51 8 56 97 53 52 43 40 36 54 49 60 73 35 23 10 0 0 0 0 0 0 0
2482 2471 2410 2321 2240 2170 2250 2168 2289 2479 2554 2423 2025 1611 1166 586 207 15 15 66 61 66 90 63 36 31 44 56 33 34 31 0 0 0 0 0 0 0
2870 2813 2782 2734 2690 2621 2522 2403 2330 2230 2270 2487 2415 2089 1764 1413 1070 675 82 21 33 63 83 69 65 65 10 14 18 33 5 0 0 0 0 0 0 0
2760 2891 2973 3001 3041 3037 2942 2858 2769 2631 2529 2422 2243 2201 2157 2009 1740 1424 938 104 7 15 114 55 56 99 23 0 1 5 1 0 0 0 0 0 0 0
3155 3101 3018 3003 3001 3014 3016 3028 2945 2842 2851 2605 2492 2561 2648 2212 1860 1739 1509 972 151 14 56 109 103 78 51 1 8 18 10 0 0 0 0 0 0 0
3425 3328 3485 3258 3117 3055 2999 2942 2959 3038 3044 2959 2907 2626 2360 2119 1899 1897 1849 1394 816 340 91 96 138 157 134 58 7 21 25 7 0 0 0 0 0 0
3899 3763 3704 3602 3551 3558 3545 3476 3377 3308 3105 2792 2734 2761 2620 2453 2289 2108 2136 2036 1182 835 525 227 166 157 131 12 0 6 3 0 0 0 0 0 0 0
4111 4132 4116 4094 4076 4043 3979 3880 3780 3752 3621 3415 3214 2946 2600 2460 2319 2279 1959 1876 1473 1293 938 619 333 189 104 22 5 7 12 19 0 0 0 0 0 0
3456 3500 3133 2921 2893 2793 2744 2797 2882 2971 2938 2905 2747 2552 2278 2149 1844 1590 1451 1441 1358 1125 1063 626 410 253 139 5 3 5 26 33 0 0 0 0 0 0
2831 2843 2816 2796 2799 2772 2628 2485 2654 2492 1957 1693 1865 1637 1753 1576 1604 1355 1229 939 736 943 466 625 709 182 85 3 19 42 27 29 0 0 0 0 0 0
2706 2725 2306 1687 412 395 479 435 203 19 3 0 4 190 586 914 1062 641 984 608 593 549 162 140 343 172 112 0 7 5 52 0 0 0 0 0 0 0
1444 18 0 0 0 0 0 0 0 0 0 0 0 0 5 29 25 14 112 238 395 197 229 71 45 92 3 6 31 14 0 0 0 0 0 0 0 0
0 0 0 0 0 0 0 0 0 0 0 0 0 1 0 0 0 0 0 3 16 105 44 2 2 5 56 77 51 4 0 0 0 0 0 0 0 0
0 0 0 0 0 0 0 0 0 0 0 0 0 0 0 0 0 0 0 0 3 0 4 97 132 79 63 0 0 0 0 0 0 0 0 0 0 0
0 1 2 6 6 4 3 1 4 0 0 0 0 0 0 0 0 0 0 0 1 0 0 4 63 22 0 6 0 0 0 0 0 0 0 0 0 0